Location: Limoges
(45.8500°N, 1.2500°E)
Time: 01:45:44
(UTC+02:00)

ISS - Pass Details

Date: 29 September 2021
Orbit: 417 x 423 km, 51.6° (Epoch: 21 October)

Event Time Altitude Azimuth Distance (km) Brightness Sun altitude
Rises 20:11:21 0° 291° (WNW) 2,364 1.7 -6.5°
Reaches altitude 10° 20:13:36 10° 303° (WNW) 1,500 0.1 -6.9°
Maximum altitude 20:16:39 31° 7° (N) 771 -2.4 -7.4°
Drops below altitude 10° 20:19:41 10° 71° (ENE) 1,502 -1.5 -8.0°
Enters shadow 20:19:50 - 73° (ENE) 1,555 -1.5 -8.0°
